Zurück zum Katalog

GSAT 8

AktivKommunikationGEO
NORAD 37605·PAYLOAD·🇮🇳 India

Gestartet May 20, 2011 von Guiana Space Centre

Loading…

TLE

AktuellSource: Space-Track

Epoche: Sep 14, 2026, 14:03 UTC

1 37605U 11022A   26257.58602106  .00000077  00000-0  00000-0 0  9991
2 37605   2.3559  80.6364 0005793 156.8414  22.1485  1.00272692 54119

Verfolge GSAT 8 in Echtzeit mit AllMySat

Download on the App Store